sat.trackr.live / text

‹ back to catalog

SPACEMOBILE-003

NORAD 61045 · 2024-163A

PAYLOAD ACTIVE UNKNOWN

§ Identity

Operator
Country
US
Launch date
2024-09-12
Launch site
AFETR
Launch vehicle
Mass (kg)
RCS (m²)

External: N2YO · Heavens-Above · Gunter

§ Orbital elements

Epoch: 2026-09-22T06:59:26.373408Z

Period
94.71 min
Inclination
52.9691°
Eccentricity
0.0006980
Mean motion
15.20429875 rev/d
Perigee alt
499.7 km
Apogee alt
509.3 km
Semi-major
6,882.7 km
B*
7.0117e-5
RAAN
222.9722°
Arg perigee
53.4093°
Mean anomaly
306.7542°
Rev number
11,254

§ Raw data

SPACEMOBILE-0031 61045U 24163A   26265.29127747  .00001222  00000+0  70117-4 0  99982 61045  52.9691 222.9722 0006980  53.4093 306.7542 15.20429875112546

JSON: /api/v1/satellites/61045 · /tle

For live sub-satellite position, see the globe view (requires WebGL).

§ Visibility from observer

Set your observer location to see the next 7 days of passes ≥ 10°. The values pass through the URL so the page stays shareable.

No JS? Fill the form by hand. The geolocation button needs JavaScript.

§ Radio — SatNOGS DB

ModeDescriptionDownlinkUplink
GFSK Mode U - Transmitter 434.100 MHz
BPSK S-band telemetry 2.225 GHz

2 transmitters · refreshed weekly from db.satnogs.org